{"data":{"norad_id":42963,"epoch":"2026-09-20T05:09:22.737600Z","epoch_age_seconds":40016,"freshness":"FRESH","line1":"1 42963U 17061J   26263.21484650  .00000033  00000+0  48321-5 0  9996","line2":"2 42963  86.4026 345.6154 0002180  93.9719 266.1726 14.34217745468465","mean_motion":14.34217745,"eccentricity":0.000218,"inclination_deg":86.4026,"raan_deg":345.6154,"arg_perigee_deg":93.9719,"mean_anomaly_deg":266.1726,"bstar":4.8321e-6,"rev_number":46846,"period_min":100.40316437446,"perigee_km":776.10720567535,"apogee_km":779.2271362939,"semimajor_km":7155.8041709846,"source":"CELESTRAK","updated_at":"2026-09-20T09:00:36.325764Z"}}